Regional Weather Roundup
Issued by NWS

Home | Current Version | Previous Version | Graphics & Text | Print | Product List | Glossary On
Versions: 1 2 3 4 5 6 7 8 9 10 11 12 13 14 15 16 17 18 19 20 21 22 23 24 25 26 27 28 29 30 31 32 33 34 35 36 37 38 39 40 41 42 43 44 45 46 47 48 49 50
000
ASUS43 KLMK 270110
RWRKY
KENTUCKY REGIONAL WEATHER ROUNDUP
NATIONAL WEATHER SERVICE LOUISVILLE KY
900 PM EDT TUE JUL 26 2016

NOTE "FAIR" INDICATES FEW OR NO CLOUDS BELOW 12,000 FEET
WITH NO SIGNIFICANT WEATHER AND/OR OBSTRUCTIONS TO VISIBILITY.

KYZ001>023-026-027-061>063-070>075-270200-
WESTERN AND SOUTH CENTRAL KENTUCKY

CITY           SKY/WX    TMP DP  RH WIND       PRES   REMARKS
PADUCAH        PTCLDY    79  73  82 CALM      29.96S
HENDERSON      CLOUDY    81  75  83 NW3       29.95F
OWENSBORO      PTCLDY    83  78  84 CALM      29.97S HX  93
HOPKINSVILLE   CLOUDY    85  73  67 S10       29.97R HX  92
BOWLING GREEN  MOCLDY    89  73  59 NW3       29.96F HX  97
GLASGOW        CLOUDY    84  76  77 CALM      29.98S HX  92
$$

KYZ024-025-028>034-038-045-046-053-270200-
NORTH CENTRAL KENTUCKY

CITY           SKY/WX    TMP DP  RH WIND       PRES   REMARKS
LOUISVILLE/SDF MOCLDY    82  71  69 CALM      29.97S
LOUISVILLE/LOU PTCLDY    81  74  79 NW3       29.99R
FORT KNOX      CLOUDY    78  74  87 N3        29.97S
$$

KYZ035>037-039>044-047>052-055>060-089>105-270200-
NORTHEAST KENTUCKY

CITY           SKY/WX    TMP DP  RH WIND       PRES   REMARKS
LEXINGTON      MOCLDY    80  73  79 N6        30.02R
COVINGTON      CLOUDY    80  74  81 CALM      30.01R
FRANKFORT      CLOUDY    78  73  84 CALM      30.00S
$$

KYZ054-064>069-076>088-106>120-270200-
SOUTHEAST KENTUCKY

CITY           SKY/WX    TMP DP  RH WIND       PRES   REMARKS
JACKSON        PTCLDY    78  70  76 CALM      30.03R
LONDON         CLEAR     85  72  65 W3        30.01S HX  91
SOMERSET       PTCLDY    81  73  78 CALM      30.01R
MIDDLESBORO    CLOUDY    82  74  76 CALM      30.02R
MONTICELLO     CLEAR    N/A N/A N/A N8        30.01S
$$





USA.gov is the U.S. government's official web portal to all federal, state and local government web resources and services.